SCP
-0 0 -0 -0 -0 0 0 0 0 0 0 0 0 0 0 0 0 0 0 0 0 0 0 0 0 0 0 0 0 0 0 0
-0 -0 -0 -0 0 0 0 0 0 0 0 0 0 0 0 0 0 0 0 0 0 0 0 0 0 1 0 0 0 1 1 0
0 -0 -0 0 0 0 0 0 0 0 0 0 0 0 0 0 0 0 0 0 0 0 0 0 1 1 0 0 1 1 1 0
-0 0 -0 -0 0 0 0 0 0 0 0 0 0 0 0 0 0 0 0 0 0 0 0 0 0 0 0 0 0 1 1 0
-0 -0 -0 0 0 0 -0 -0 -0 -0 0 0 0 0 0 0 0 0 0 0 0 0 0 0 0 0 0 0 0 0 0 0
-0 -0 0 0 -0 -0 -0 -0 -0 -0 -0 -0 0 0 0 0 0 0 0 0 0 0 0 0 0 0 0 0 0 0 0 0
0 -0 -0 -0 -0 -0 -0 -0 -0 -0 -0 -0 -0 0 0 0 0 0 0 0 0 0 0 0 0 0 0 0 0 0 0 0
0 0 -0 -0 0 -0 0 0 -0 -0 -0 0 0 0 0 0 0 0 0 0 0 0 0 0 0 0 0 0 0 0 0 0
0 0 0 -0 0 0 0 0 0 0 0 0 0 0 0 0 0 0 0 0 0 0 0 0 0 0 0 0 0 0 0 0
0 0 0 -0 0 0 0 0 0 0 0 0 0 0 0 0 0 0 0 0 0 0 0 0 0 0 0 0 0 0 0 0
0 0 0 0 0 0 0 0 0 0 0 0 0 0 0 0 0 0 0 0 0 0 0 0 0 0 0 0 0 0 0 0
0 0 0 0 0 0 0 0 0 0 0 0 0 0 0 0 0 0 0 0 0 0 0 0 0 0 0 0 0 0 0 0
0 0 0 0 0 0 0 0 0 0 0 0 0 0 0 0 0 0 0 0 0 0 0 0 0 0 0 0 0 0 0 0
0 0 0 0 0 0 0 0 0 0 0 0 0 0 0 0 0 0 0 0 0 0 0 0 0 0 0 0 0 0 0 0
0 0 0 0 0 0 0 0 0 0 0 0 0 0 0 0 0 0 0 0 0 0 0 0 0 0 0 0 0 0 0 0
0 0 0 0 0 0 0 0 0 0 0 0 0 0 0 0 0 0 0 0 0 0 0 0 0 0 0 0 0 0 0 0
0 0 0 0 0 0 0 0 0 0 0 0 0 0 0 0 0 0 0 0 0 0 0 0 0 0 0 0 0 0 0 0
0 0 0 0 0 0 0 0 0 0 0 0 0 0 0 0 0 0 0 0 0 0 0 0 0 0 0 0 0 0 0 0
0 0 0 0 0 0 0 0 0 0 0 0 0 0 0 0 0 0 0 0 0 0 0 0 0 0 0 0 0 0 0 0
Wind_Speed_500mb
24 23 21 19 18 17 17 16 14 13 12 10 10 9 8 6 4 1 3 7 12 14 14 14 17 19 19 20 22 25 28 29
23 22 20 18 17 15 15 14 13 12 10 8 6 5 3 1 1 3 7 8 10 11 12 14 16 18 22 24 25 26 29 31
20 24 22 20 17 15 13 11 9 7 5 2 1 1 2 4 4 2 5 9 11 13 16 17 19 25 30 31 31 30 32 35
24 24 24 21 19 16 14 13 11 9 6 3 3 4 5 6 6 8 14 16 20 23 24 26 27 30 33 32 32 34 36 38
29 27 25 23 22 20 18 15 13 13 11 8 7 5 6 9 10 12 16 18 21 24 26 26 28 30 33 35 38 41 45 50
31 25 26 29 29 28 23 20 19 19 19 20 20 19 19 18 17 18 19 22 24 26 27 27 29 34 36 37 38 43 49 52
36 34 32 27 26 22 20 18 16 17 16 17 15 15 16 15 13 16 19 22 26 29 33 37 41 45 51 56 59 58 62 64
38 38 33 26 21 18 14 13 11 10 10 11 13 14 15 16 16 19 24 30 35 40 41 43 45 49 54 60 64 69 73 75
42 38 35 29 20 15 12 8 7 3 4 7 9 12 15 20 24 29 35 41 44 46 49 51 52 55 58 64 71 76 79 80
45 37 36 33 25 17 17 15 12 6 4 4 8 13 20 25 31 36 39 41 42 44 48 53 58 62 64 71 77 80 85 86
50 39 41 40 30 23 21 20 18 12 10 13 17 20 26 35 40 43 47 48 50 52 56 60 64 69 71 75 80 82 87 92
52 44 45 44 33 27 25 24 22 17 18 23 27 28 33 41 45 49 51 52 54 57 61 65 68 71 77 81 87 91 96 96
53 52 51 46 37 34 28 24 20 18 23 28 32 36 42 44 43 40 44 51 57 61 67 73 78 85 90 89 86 87 87 84
65 58 60 54 44 41 35 30 28 29 30 34 37 39 42 43 47 52 60 65 69 74 79 83 85 83 86 88 91 92 89 85
69 65 59 53 43 38 33 32 31 32 34 37 38 40 45 50 56 61 65 71 77 81 83 84 86 85 84 84 86 89 87 80
79 72 58 48 42 39 37 37 37 37 39 42 40 43 50 53 59 65 71 75 80 84 86 83 83 82 81 77 81 82 81 53
81 68 60 52 48 45 44 42 41 39 40 37 40 47 51 57 63 71 77 79 77 74 71 70 67 69 68 62 58 59 35 53
72 66 60 55 52 49 44 39 34 34 34 36 42 49 57 64 71 73 71 68 66 63 60 56 55 56 63 58 44 36 23 15
64 62 59 55 50 42 28 24 28 27 32 40 47 56 64 69 67 62 58 56 56 54 55 54 51 53 54 58 53 50 48 55
Wind_Direction_500mb
148 150 153 151 149 144 139 135 131 126 124 121 114 113 125 139 108 65 294 331 339 338 340 343 344 342 334 324 318 316 313 310
147 149 153 154 153 148 144 142 141 140 140 137 135 151 154 124 274 314 349 350 345 347 344 341 333 328 324 320 312 304 303 304
149 145 147 150 151 150 149 140 132 125 117 112 83 327 342 320 308 318 339 345 338 331 333 328 318 319 322 320 317 313 311 310
137 130 132 133 131 126 117 106 101 95 89 73 15 1 358 343 331 316 335 333 329 325 325 326 322 324 325 324 320 317 314 312
130 124 131 128 122 121 114 110 102 85 73 57 35 9 324 315 315 314 327 351 356 352 352 347 344 344 333 320 316 313 308 304
144 137 131 122 115 114 108 108 102 92 84 76 67 57 49 43 41 43 37 23 11 3 356 349 342 336 337 335 322 311 306 311
160 145 142 137 126 120 111 109 103 91 82 73 59 46 43 45 31 10 357 350 349 344 342 339 335 331 329 329 327 321 321 319
170 161 157 153 141 130 121 119 118 103 87 60 42 32 26 16 2 344 336 334 335 334 331 329 322 320 318 318 316 314 313 313
183 174 172 162 162 159 160 157 160 128 65 28 12 1 345 339 334 327 327 324 323 323 320 318 314 312 308 304 305 305 304 304
190 190 190 179 176 184 198 205 211 212 250 283 336 316 313 310 307 306 309 308 303 299 298 297 297 298 295 294 296 296 298 298
198 200 199 190 187 200 211 218 229 234 262 272 277 291 280 281 282 282 286 286 285 285 285 285 283 286 286 287 289 289 290 291
201 204 200 191 197 202 209 220 221 234 240 248 255 263 271 281 281 283 283 279 279 282 282 283 285 286 287 287 286 286 287 287
201 200 198 196 203 205 212 211 217 231 245 253 264 276 282 284 283 283 285 287 287 287 288 290 292 294 295 296 297 296 294 292
209 205 196 199 211 214 215 210 214 231 250 263 272 274 277 277 279 285 290 292 295 296 297 298 298 299 300 300 300 299 299 299
211 207 204 205 208 213 216 215 229 245 257 265 266 271 277 281 286 290 295 297 297 297 297 298 299 301 302 304 302 300 299 299
207 206 202 206 211 214 217 221 232 245 255 263 272 284 289 293 297 298 298 299 299 300 302 304 305 307 307 308 308 306 307 315
207 200 202 204 204 211 220 225 231 245 261 275 288 291 294 295 298 302 305 307 307 308 308 310 311 311 312 319 319 322 318 319
205 198 200 198 203 209 219 227 239 260 284 292 291 295 299 304 308 310 312 313 313 314 316 321 325 328 323 323 317 306 312 292
199 196 196 194 198 206 215 240 263 295 296 300 305 306 309 310 311 315 319 319 321 323 327 329 326 323 320 318 316 309 296 289
Wind_Speed_850mb
24 23 21 19 18 17 17 16 14 13 12 10 10 9 8 6 4 1 3 7 12 14 14 14 17 19 19 20 22 25 28 29
23 22 20 18 17 15 15 14 13 12 10 8 6 5 3 1 1 3 7 8 10 11 12 14 16 18 22 24 25 26 29 31
20 24 22 20 17 15 13 11 9 7 5 2 1 1 2 4 4 2 5 9 11 13 16 17 19 25 30 31 31 30 32 35
24 24 24 21 19 16 14 13 11 9 6 3 3 4 5 6 6 8 14 16 20 23 24 26 27 30 33 32 32 34 36 38
29 27 25 23 22 20 18 15 13 13 11 8 7 5 6 9 10 12 16 18 21 24 26 26 28 30 33 35 38 41 45 50
31 25 26 29 29 28 23 20 19 19 19 20 20 19 19 18 17 18 19 22 24 26 27 27 29 34 36 37 38 43 49 52
36 34 32 27 26 22 20 18 16 17 16 17 15 15 16 15 13 16 19 22 26 29 33 37 41 45 51 56 59 58 62 64
38 38 33 26 21 18 14 13 11 10 10 11 13 14 15 16 16 19 24 30 35 40 41 43 45 49 54 60 64 69 73 75
42 38 35 29 20 15 12 8 7 3 4 7 9 12 15 20 24 29 35 41 44 46 49 51 52 55 58 64 71 76 79 80
45 37 36 33 25 17 17 15 12 6 4 4 8 13 20 25 31 36 39 41 42 44 48 53 58 62 64 71 77 80 85 86
50 39 41 40 30 23 21 20 18 12 10 13 17 20 26 35 40 43 47 48 50 52 56 60 64 69 71 75 80 82 87 92
52 44 45 44 33 27 25 24 22 17 18 23 27 28 33 41 45 49 51 52 54 57 61 65 68 71 77 81 87 91 96 96
53 52 51 46 37 34 28 24 20 18 23 28 32 36 42 44 43 40 44 51 57 61 67 73 78 85 90 89 86 87 87 84
65 58 60 54 44 41 35 30 28 29 30 34 37 39 42 43 47 52 60 65 69 74 79 83 85 83 86 88 91 92 89 85
69 65 59 53 43 38 33 32 31 32 34 37 38 40 45 50 56 61 65 71 77 81 83 84 86 85 84 84 86 89 87 80
79 72 58 48 42 39 37 37 37 37 39 42 40 43 50 53 59 65 71 75 80 84 86 83 83 82 81 77 81 82 81 53
81 68 60 52 48 45 44 42 41 39 40 37 40 47 51 57 63 71 77 79 77 74 71 70 67 69 68 62 58 59 35 53
72 66 60 55 52 49 44 39 34 34 34 36 42 49 57 64 71 73 71 68 66 63 60 56 55 56 63 58 44 36 23 15
64 62 59 55 50 42 28 24 28 27 32 40 47 56 64 69 67 62 58 56 56 54 55 54 51 53 54 58 53 50 48 55
Wind_Direction_850mb
148 150 153 151 149 144 139 135 131 126 124 121 114 113 125 139 108 65 294 331 339 338 340 343 344 342 334 324 318 316 313 310
147 149 153 154 153 148 144 142 141 140 140 137 135 151 154 124 274 314 349 350 345 347 344 341 333 328 324 320 312 304 303 304
149 145 147 150 151 150 149 140 132 125 117 112 83 327 342 320 308 318 339 345 338 331 333 328 318 319 322 320 317 313 311 310
137 130 132 133 131 126 117 106 101 95 89 73 15 1 358 343 331 316 335 333 329 325 325 326 322 324 325 324 320 317 314 312
130 124 131 128 122 121 114 110 102 85 73 57 35 9 324 315 315 314 327 351 356 352 352 347 344 344 333 320 316 313 308 304
144 137 131 122 115 114 108 108 102 92 84 76 67 57 49 43 41 43 37 23 11 3 356 349 342 336 337 335 322 311 306 311
160 145 142 137 126 120 111 109 103 91 82 73 59 46 43 45 31 10 357 350 349 344 342 339 335 331 329 329 327 321 321 319
170 161 157 153 141 130 121 119 118 103 87 60 42 32 26 16 2 344 336 334 335 334 331 329 322 320 318 318 316 314 313 313
183 174 172 162 162 159 160 157 160 128 65 28 12 1 345 339 334 327 327 324 323 323 320 318 314 312 308 304 305 305 304 304
190 190 190 179 176 184 198 205 211 212 250 283 336 316 313 310 307 306 309 308 303 299 298 297 297 298 295 294 296 296 298 298
198 200 199 190 187 200 211 218 229 234 262 272 277 291 280 281 282 282 286 286 285 285 285 285 283 286 286 287 289 289 290 291
201 204 200 191 197 202 209 220 221 234 240 248 255 263 271 281 281 283 283 279 279 282 282 283 285 286 287 287 286 286 287 287
201 200 198 196 203 205 212 211 217 231 245 253 264 276 282 284 283 283 285 287 287 287 288 290 292 294 295 296 297 296 294 292
209 205 196 199 211 214 215 210 214 231 250 263 272 274 277 277 279 285 290 292 295 296 297 298 298 299 300 300 300 299 299 299
211 207 204 205 208 213 216 215 229 245 257 265 266 271 277 281 286 290 295 297 297 297 297 298 299 301 302 304 302 300 299 299
207 206 202 206 211 214 217 221 232 245 255 263 272 284 289 293 297 298 298 299 299 300 302 304 305 307 307 308 308 306 307 315
207 200 202 204 204 211 220 225 231 245 261 275 288 291 294 295 298 302 305 307 307 308 308 310 311 311 312 319 319 322 318 319
205 198 200 198 203 209 219 227 239 260 284 292 291 295 299 304 308 310 312 313 313 314 316 321 325 328 323 323 317 306 312 292
199 196 196 194 198 206 215 240 263 295 296 300 305 306 309 310 311 315 319 319 321 323 327 329 326 323 320 318 316 309 296 289